KOFP

Details ICAO KOFP
Name HANOVER CO MUNI
Region United States
Timezone America/New_York (UTC-4.0)
Plans Departing 30
Arriving 11
Stats Elevation 208 ft / 63 m (AMSL)
Location 37.708939° -77.436641°
Runways 1
Magnetic Variation 10.363° W
Sunrise 2018-06-23 09:50:01 UTC / 2018-06-23 05:50:01 Local
Sunset 2018-06-24 00:36:23 UTC / 2018-06-23 20:36:23 Local
Advertisement - Login to hide

Runways

ID Width Length Bearing (true) Bearing (mag) Surface Threshold Offset Overrun Length
16 100 ft / 30 m 5,406 ft / 1,648 m 149.81° 160.17° Asphalt 0 ft / 0 m 0 ft / 0 m
34 100 ft / 30 m 5,406 ft / 1,648 m 329.81° 340.17° Asphalt 0 ft / 0 m 0 ft / 0 m

Approach Navaids

Runway Type Ident Frequency Range Bearing (true) Bearing (mag) Slope Elevation
16 Localiser IOFP 109.70 MHz 18 nm / 33 km 150.00° 160.36° - 208 ft / 63 m (AMSL)
16 DME IOFP 109.70 MHz 18 nm / 33 km - - - 208 ft / 63 m (AMSL)

Map

Weather


0- 5 10 15 20 25 30 35+ Temperature / ° C

Clouds and Precipitation
Forecast for 2018-06-24 00:00 UTC. Updated an hour ago

Ground ~20,000 ft ~40,000 ft Winds

METAR

KOFP 232254Z AUTO 24004KT 10SM FEW100 28/21 A2981 RMK AO2 SLP090 T02830211

TAF

Not found

Frequencies

Recorded 119.02 MHz ASOS
Clearance 125.40 MHz POTOMAC CLNC DEL
Departure 134.70 MHz POTOMAC DEP
Unicom 122.70 MHz CTAF/UNICOM
Approach 134.70 MHz POTOMAC APP
Warning: Do not use this data for real-world aviation or navigation. No guarantee of current accuracy is given.